When you browse on this site, cookies collect data to enhance your experience and personalize the content and advertising you see.
Visit our Privacy Policy to learn more. By continuing to use the site, you agree to this use of cookies and data.
  • In Latvia
  • List of Countries
  • For 7 days
  • Water Temperature
  • Satellite Maps
  • Weather Map
  • Weather Widgets
  • user-avatar
    Login

    Hourly Weather Shturbino

    Today, 25 March, Monday

    Time Temperature Precipitation Wind Pressure Humidity
    00:00 0°C° 0 mm 3 mps 759 mmHg 81%
    01:00 0°C° 0 mm 3 mps 759 mmHg 82%
    02:00 0°C° 0 mm 3 mps 758 mmHg 84%
    03:00 0°C° 0 mm 3 mps 758 mmHg 85%
    04:00 0°C° 0 mm 3 mps 758 mmHg 86%
    05:00 0°C° 0 mm 3 mps 758 mmHg 86%
    06:00 -1°C° 0 mm 3 mps 758 mmHg 87%
    07:00 +1°C° 0 mm 3 mps 758 mmHg 79%
    08:00 +3°C° 0 mm 3 mps 757 mmHg 72%
    09:00 +5°C° 0 mm 3 mps 757 mmHg 65%
    10:00 +7°C° 0 mm 2 mps 757 mmHg 60%
    11:00 +8°C° 0 mm 2 mps 757 mmHg 56%
    12:00 +9°C° 0 mm 2 mps 756 mmHg 52%
    13:00 +10°C° 0 mm 2 mps 756 mmHg 51%
    14:00 +11°C° 0 mm 1 mps 756 mmHg 49%
    15:00 +12°C° 0 mm 2 mps 756 mmHg 47%
    16:00 +10°C° 0 mm 2 mps 756 mmHg 51%
    17:00 +11°C° 0 mm 1 mps 756 mmHg 54%
    18:00 +10°C° 0 mm 1 mps 756 mmHg 58%
    19:00 +9°C° 0 mm 1 mps 756 mmHg 60%
    20:00 +8°C° 0 mm 1 mps 756 mmHg 62%
    21:00 +7°C° 0 mm 1 mps 756 mmHg 64%
    22:00 +6°C° 0 mm 1 mps 756 mmHg 66%
    23:00 +5°C° 0 mm 2 mps 756 mmHg 69%

    Tomorrow, 26 March, Tuesday

    Time Temperature Precipitation Wind Pressure Humidity
    00:00 +4°C° 0 mm 2 mps 756 mmHg 71%
    01:00 +4°C° 0 mm 2 mps 756 mmHg 72%
    02:00 +4°C° 0 mm 2 mps 756 mmHg 74%
    03:00 +3°C° 0 mm 2 mps 756 mmHg 75%
    04:00 +3°C° 0 mm 2 mps 756 mmHg 76%
    05:00 +3°C° 0 mm 2 mps 756 mmHg 77%
    06:00 +2°C° 0 mm 2 mps 755 mmHg 77%
    07:00 +5°C° 0 mm 1 mps 755 mmHg 72%
    08:00 +7°C° 0 mm 1 mps 755 mmHg 66%
    09:00 +8°C° 0 mm 1 mps 755 mmHg 61%
    10:00 +10°C° 0 mm 1 mps 755 mmHg 57%
    11:00 +12°C° 0 mm 1 mps 755 mmHg 52%
    12:00 +14°C° 0 mm 1 mps 754 mmHg 48%
    13:00 +14°C° 0 mm 1 mps 754 mmHg 45%
    14:00 +15°C° 0 mm 1 mps 754 mmHg 42%
    15:00 +16°C° 0 mm 1 mps 754 mmHg 39%
    16:00 +15°C° 0 mm 1 mps 753 mmHg 43%
    17:00 +14°C° 0 mm 1 mps 753 mmHg 47%
    18:00 +13°C° 0 mm 1 mps 753 mmHg 51%
    19:00 +12°C° 0 mm 1 mps 753 mmHg 52%
    20:00 +11°C° 0 mm 1 mps 754 mmHg 54%
    21:00 +10°C° 0 mm 1 mps 754 mmHg 55%
    22:00 +9°C° 0 mm 1 mps 754 mmHg 58%
    23:00 +8°C° 0 mm 1 mps 754 mmHg 61%

    Day after tomorrow, 27 March, Wednesday

    Time Temperature Precipitation Wind Pressure Humidity
    00:00 +8°C° 0 mm 1 mps 754 mmHg 64%
    01:00 +7°C° 0 mm 1 mps 754 mmHg 67%
    02:00 +7°C° 0 mm 1 mps 754 mmHg 70%
    03:00 +6°C° 0 mm 1 mps 754 mmHg 73%
    04:00 +6°C° 0 mm 1 mps 754 mmHg 75%
    05:00 +6°C° 0 mm 1 mps 754 mmHg 77%
    06:00 +5°C° 0 mm 1 mps 754 mmHg 79%
    07:00 +7°C° 0 mm 1 mps 754 mmHg 74%
    08:00 +7°C° 0 mm 2 mps 755 mmHg 69%
    09:00 +9°C° 0 mm 2 mps 755 mmHg 64%
    10:00 +10°C° 0 mm 3 mps 755 mmHg 60%
    11:00 +12°C° 0 mm 3 mps 755 mmHg 57%
    12:00 +14°C° 0 mm 4 mps 755 mmHg 53%
    13:00 +14°C° 0 mm 5 mps 755 mmHg 53%
    14:00 +14°C° 0 mm 6 mps 755 mmHg 54%
    15:00 +14°C° 0 mm 6 mps 755 mmHg 55%
    16:00 +11°C° 0.1 mm 6 mps 755 mmHg 62%
    17:00 +10°C° 0.1 mm 5 mps 756 mmHg 69%
    18:00 +10°C° 0.1 mm 4 mps 756 mmHg 76%
    19:00 +8°C° 0.1 mm 4 mps 757 mmHg 73%
    20:00 +7°C° 0.1 mm 4 mps 758 mmHg 70%
    21:00 +6°C° 0.1 mm 4 mps 758 mmHg 67%
    22:00 +5°C° 0 mm 4 mps 759 mmHg 65%
    23:00 +4°C° 0 mm 4 mps 759 mmHg 63%

    28 March, Thursday

    Time Temperature Precipitation Wind Pressure Humidity
    00:00 +3°C° 0 mm 4 mps 759 mmHg 61%
    01:00 +3°C° 0 mm 3 mps 759 mmHg 61%
    02:00 +3°C° 0 mm 3 mps 759 mmHg 61%
    03:00 +3°C° 0 mm 3 mps 759 mmHg 61%
    04:00 +3°C° 0 mm 3 mps 759 mmHg 63%
    05:00 +3°C° 0 mm 3 mps 759 mmHg 64%
    06:00 +3°C° 0 mm 3 mps 759 mmHg 66%
    07:00 +4°C° 0 mm 4 mps 759 mmHg 64%
    08:00 +5°C° 0 mm 5 mps 760 mmHg 63%
    09:00 +5°C° 0 mm 5 mps 760 mmHg 62%
    10:00 +5°C° 0 mm 6 mps 760 mmHg 59%
    11:00 +7°C° 0 mm 6 mps 760 mmHg 57%
    12:00 +8°C° 0 mm 7 mps 760 mmHg 54%
    13:00 +8°C° 0 mm 7 mps 760 mmHg 52%
    14:00 +8°C° 0 mm 7 mps 760 mmHg 51%
    15:00 +8°C° 0 mm 7 mps 759 mmHg 50%
    16:00 +7°C° 0 mm 6 mps 760 mmHg 52%
    17:00 +6°C° 0 mm 5 mps 760 mmHg 55%
    18:00 +5°C° 0 mm 5 mps 760 mmHg 57%
    19:00 +4°C° 0 mm 4 mps 761 mmHg 64%
    20:00 +3°C° 0 mm 4 mps 761 mmHg 70%
    21:00 +1°C° 0 mm 4 mps 762 mmHg 76%
    22:00 +2°C° 0.1 mm 3 mps 762 mmHg 79%
    23:00 +2°C° 0.1 mm 3 mps 762 mmHg 81%

    29 March, Friday

    Time Temperature Precipitation Wind Pressure Humidity
    00:00 +2°C° 0.1 mm 3 mps 763 mmHg 83%
    01:00 +3°C° 0.3 mm 2 mps 763 mmHg 84%
    02:00 +3°C° 0.3 mm 2 mps 763 mmHg 85%
    03:00 +4°C° 0.3 mm 1 mps 763 mmHg 86%
    04:00 +3°C° 0 mm 1 mps 763 mmHg 87%
    05:00 +3°C° 0 mm 1 mps 764 mmHg 88%
    06:00 +2°C° 0 mm 1 mps 764 mmHg 89%
    07:00 +4°C° 0 mm 1 mps 764 mmHg 80%
    08:00 +4°C° 0 mm 0 mps 764 mmHg 72%
    09:00 +6°C° 0 mm 0 mps 764 mmHg 63%
    10:00 +8°C° 0 mm 1 mps 764 mmHg 55%
    11:00 +9°C° 0 mm 1 mps 763 mmHg 48%
    12:00 +9°C° 0 mm 2 mps 763 mmHg 40%
    13:00 +9°C° 0 mm 2 mps 762 mmHg 39%
    14:00 +9°C° 0 mm 2 mps 762 mmHg 38%
    15:00 +10°C° 0 mm 3 mps 761 mmHg 37%
    16:00 +9°C° 0 mm 3 mps 761 mmHg 43%
    17:00 +9°C° 0 mm 2 mps 761 mmHg 48%
    18:00 +8°C° 0 mm 2 mps 761 mmHg 53%
    19:00 +7°C° 0 mm 3 mps 761 mmHg 55%
    20:00 +4°C° 0 mm 3 mps 761 mmHg 58%
    21:00 +3°C° 0 mm 3 mps 762 mmHg 60%
    22:00 +2°C° 0 mm 3 mps 761 mmHg 61%
    23:00 +2°C° 0 mm 3 mps 761 mmHg 61%

    30 March, Saturday

    Time Temperature Precipitation Wind Pressure Humidity
    00:00 +1°C° 0 mm 3 mps 761 mmHg 62%
    01:00 0°C° 0 mm 4 mps 760 mmHg 60%
    02:00 0°C° 0 mm 4 mps 760 mmHg 59%
    03:00 0°C° 0 mm 5 mps 760 mmHg 57%
    04:00 0°C° 0 mm 5 mps 759 mmHg 56%
    05:00 +1°C° 0 mm 6 mps 759 mmHg 54%
    06:00 +2°C° 0 mm 6 mps 759 mmHg 53%
    07:00 +2°C° 0 mm 6 mps 759 mmHg 56%
    08:00 +3°C° 0 mm 6 mps 759 mmHg 60%
    09:00 +3°C° 0 mm 7 mps 760 mmHg 63%
    10:00 +4°C° 0 mm 6 mps 760 mmHg 63%
    11:00 +7°C° 0 mm 6 mps 760 mmHg 63%
    12:00 +8°C° 0 mm 6 mps 760 mmHg 63%
    13:00 +8°C° 0.1 mm 5 mps 759 mmHg 61%
    14:00 +9°C° 0.1 mm 5 mps 759 mmHg 58%
    15:00 +9°C° 0.1 mm 5 mps 759 mmHg 56%
    16:00 +10°C° 0 mm 4 mps 759 mmHg 58%
    17:00 +9°C° 0 mm 3 mps 759 mmHg 59%
    18:00 +9°C° 0 mm 2 mps 760 mmHg 61%
    19:00 +7°C° 0 mm 2 mps 760 mmHg 62%
    20:00 +7°C° 0 mm 1 mps 761 mmHg 63%
    21:00 +6°C° 0 mm 1 mps 761 mmHg 65%
    22:00 +5°C° 0 mm 1 mps 761 mmHg 65%
    23:00 +5°C° 0 mm 1 mps 762 mmHg 65%
    Show more